Location: Slemon Park
(46.4340°N, 63.8219°W)
Time: 08:59:22
(UTC-03:00)

ISS - All Passes

Search period start: 25 July 2016 00:00
Search period end: 04 August 2016 00:00
Orbit: 401 x 404 km, 51.6° (Epoch: 25 July)

Date Brightness Start Highest point End Pass type
(mag) Time Alt. Az. Time Alt. Az. Time Alt. Az.
25 Jul - 00:18:35 10° WSW 00:21:50 66° NNW 00:25:05 10° ENE visible
25 Jul - 01:55:40 10° WNW 01:58:38 31° N 02:01:36 10° ENE visible
25 Jul - 03:32:23 10° WNW 03:35:32 44° NNE 03:38:41 10° E visible
25 Jul - 05:08:52 10° WNW 05:11:58 42° SW 05:15:04 10° SE visible
25 Jul - 21:51:18 10° SSE 21:52:56 13° SE 21:54:34 10° ESE visible
25 Jul - 23:25:38 10° WSW 23:28:53 79° SSE 23:32:09 10° ENE visible
26 Jul - 01:02:31 10° WNW 01:05:33 35° N 01:08:35 10° ENE visible
26 Jul - 02:39:26 10° WNW 02:42:29 36° N 02:45:32 10° E visible
26 Jul - 04:15:51 10° WNW 04:19:06 73° SSW 04:22:22 10° SE visible
26 Jul - 05:53:43 10° WSW 05:55:03 12° SW 05:56:21 10° SSW daylight
26 Jul - 22:32:53 10° SW 22:36:01 46° SE 22:39:10 10° ENE visible
27 Jul - 00:09:22 10° W 00:12:29 42° NNW 00:15:38 10° ENE visible
27 Jul - 01:46:26 10° WNW 01:49:24 32° N 01:52:23 10° ENE visible
27 Jul - 03:22:55 10° WNW 03:26:11 71° NNE 03:29:26 10° ESE visible
27 Jul - 04:59:49 10° W 05:02:20 21° SW 05:04:51 10° S visible
27 Jul - 21:40:25 10° SSW 21:43:12 26° SE 21:46:01 10° E visible
27 Jul - 23:16:15 10° WSW 23:19:28 59° NNW 23:22:42 10° ENE visible
28 Jul - 00:53:20 10° WNW 00:56:18 31° N 00:59:16 10° ENE visible
28 Jul - 02:30:01 10° WNW 02:33:11 48° NNE 02:36:22 10° E visible
28 Jul - 04:06:33 10° WNW 04:09:35 36° SW 04:12:35 10° SSE visible
28 Jul - 20:48:28 10° S 20:50:29 15° SE 20:52:30 10° E daylight
28 Jul - 22:23:14 10° WSW 22:26:30 90° NNW 22:29:47 10° ENE visible
29 Jul - 00:00:12 10° WNW 00:03:13 33° N 00:06:14 10° ENE visible
29 Jul - 01:37:04 10° WNW 01:40:08 37° NNE 01:43:13 10° E visible
29 Jul - 03:13:29 10° WNW 03:16:43 63° SSW 03:19:56 10° SE night (unlit)
29 Jul - 04:52:25 10° SW 04:52:35 10° SW 04:52:44 10° SW night (unlit)
29 Jul - 21:30:25 10° SW 21:33:36 54° SSE 21:36:48 10° ENE visible
29 Jul - 23:07:02 10° W 23:10:08 40° NNW 23:13:15 10° ENE visible
30 Jul - 00:44:04 10° WNW 00:47:03 32° N 00:50:03 10° ENE visible
30 Jul - 02:20:32 10° WNW 02:23:48 80° NNE 02:27:03 10° ESE visible
30 Jul - 03:57:36 10° W 03:59:54 18° SW 04:02:11 10° S night (unlit)
30 Jul - 20:37:51 10° SSW 20:40:46 31° SE 20:43:42 10° ENE daylight
30 Jul - 22:13:54 10° W 22:17:06 53° NNW 22:20:18 10° ENE visible
30 Jul - 23:50:59 10° WNW 23:53:57 31° N 23:56:55 10° ENE visible
31 Jul - 01:27:36 10° WNW 01:30:49 53° NNE 01:34:00 10° E visible
31 Jul - 03:04:13 10° WNW 03:07:08 31° SW 03:10:03 10° SSE night (unlit)
31 Jul - 19:45:42 10° S 19:48:01 18° SE 19:50:19 10° E daylight
31 Jul - 21:20:50 10° WSW 21:24:07 80° NNW 21:27:23 10° ENE visible
31 Jul - 22:57:51 10° WNW 23:00:51 32° N 23:03:50 10° ENE visible
01 Aug - 00:34:39 10° WNW 00:37:46 40° NNE 00:40:53 10° E visible
01 Aug - 02:11:06 10° WNW 02:14:17 53° SSW 02:17:28 10° SE visible
01 Aug - 18:55:02 10° SE 18:55:19 10° SE 18:55:37 10° SE daylight
01 Aug - 20:27:57 10° SW 20:31:10 63° SSE 20:34:24 10° ENE daylight
01 Aug - 22:04:40 10° W 22:07:45 37° NNW 22:10:50 10° ENE visible
01 Aug - 23:41:40 10° WNW 23:44:41 33° N 23:47:42 10° ENE visible
02 Aug - 01:18:07 10° WNW 01:21:23 90° SSE 01:24:38 10° ESE visible
02 Aug - 02:55:24 10° W 02:57:24 15° SW 02:59:25 10° S night (unlit)
02 Aug - 19:35:17 10° SSW 19:38:19 36° SE 19:41:20 10° ENE daylight
02 Aug - 21:11:31 10° W 21:14:41 48° NNW 21:17:53 10° ENE visible
02 Aug - 22:48:36 10° WNW 22:51:34 31° N 22:54:32 10° ENE visible
03 Aug - 00:25:10 10° WNW 00:28:24 59° NNE 00:31:38 10° ESE visible
03 Aug - 02:01:51 10° W 02:04:40 26° SW 02:07:27 10° SSE night (unlit)
03 Aug - 18:42:59 10° S 18:45:31 21° SE 18:48:03 10° E daylight
03 Aug - 20:18:25 10° WSW 20:21:40 71° NNW 20:24:56 10° ENE daylight
03 Aug - 21:55:28 10° WNW 21:58:27 32° N 22:01:26 10° ENE visible
03 Aug - 23:32:14 10° WNW 23:35:22 42° NNE 23:38:29 10° E visible
